Time,TemperatureF,DewpointF,PressureIn,WindDirection,WindDirectionDegrees,WindSpeedMPH,WindSpeedGustMPH,Humidity,HourlyPrecipIn,Conditions,Clouds,dailyrainin,SolarRadiationWatts/m^2,SoftwareType,DateUTC
2013-08-06 00:04:00,64.3,62.2,29.79,WSW,253,2.0,6.0,93,0.00,,OVC,0.00,0.00,VWS V14.01,2013-08-06 05:04:00,
2013-08-06 00:09:00,64.3,62.2,29.79,SW,233,4.0,7.0,93,0.00,,OVC,0.00,0.00,VWS V14.01,2013-08-06 05:09:00,
2013-08-06 00:14:00,64.3,62.2,29.78,SW,231,3.0,7.0,93,0.00,,OVC,0.00,0.00,VWS V14.01,2013-08-06 05:14:00,
2013-08-06 00:19:00,64.3,62.2,29.79,WSW,242,6.0,7.0,93,0.00,,OVC,0.00,0.00,VWS V14.01,2013-08-06 05:19:00,
2013-08-06 00:24:00,64.4,62.3,29.79,WSW,239,6.0,9.0,93,0.00,,OVC,0.00,0.00,VWS V14.01,2013-08-06 05:24:00,
2013-08-06 00:29:00,64.4,62.3,29.79,WSW,238,4.0,7.0,93,0.00,,OVC,0.00,0.00,VWS V14.01,2013-08-06 05:29:00,
2013-08-06 00:34:00,64.4,62.3,29.78,SW,233,5.0,6.0,93,0.00,,OVC,0.00,0.00,VWS V14.01,2013-08-06 05:34:00,
2013-08-06 00:39:00,64.4,62.3,29.78,SW,225,2.0,4.0,93,0.00,,OVC,0.00,0.00,VWS V14.01,2013-08-06 05:39:00,
2013-08-06 00:44:00,64.3,62.2,29.77,SW,222,0.0,4.0,93,0.00,,OVC,0.00,0.00,VWS V14.01,2013-08-06 05:44:00,
2013-08-06 00:49:00,64.3,62.2,29.78,WSW,241,4.0,7.0,93,0.00,,OVC,0.00,0.00,VWS V14.01,2013-08-06 05:49:00,
2013-08-06 00:54:00,64.3,62.2,29.78,WSW,252,5.0,6.0,93,0.00,,OVC,0.00,0.00,VWS V14.01,2013-08-06 05:54:00,
2013-08-06 00:59:00,64.4,62.3,29.78,WSW,250,5.0,8.0,93,0.00,,OVC,0.00,0.00,VWS V14.01,2013-08-06 05:59:00,
2013-08-06 01:04:00,64.5,62.4,29.77,West,270,3.0,6.0,93,0.00,,OVC,0.00,0.00,VWS V14.01,2013-08-06 06:04:00,
2013-08-06 01:09:00,64.6,62.5,29.77,WSW,253,6.0,8.0,93,0.00,,OVC,0.00,0.00,VWS V14.01,2013-08-06 06:09:00,
2013-08-06 01:14:00,64.7,62.6,29.77,SW,235,3.0,8.0,93,0.00,,OVC,0.00,0.00,VWS V14.01,2013-08-06 06:14:00,
2013-08-06 01:19:00,64.8,62.7,29.77,WSW,247,6.0,10.0,93,0.00,,OVC,0.00,0.00,VWS V14.01,2013-08-06 06:19:00,
2013-08-06 01:24:00,64.9,62.8,29.77,WSW,244,3.0,7.0,93,0.00,,OVC,0.00,0.00,VWS V14.01,2013-08-06 06:24:00,
2013-08-06 01:29:00,64.9,62.8,29.77,WSW,245,4.0,8.0,93,0.00,,OVC,0.00,0.00,VWS V14.01,2013-08-06 06:29:00,
2013-08-06 01:34:00,65.0,62.9,29.77,WSW,238,0.0,7.0,93,0.00,,OVC,0.00,0.00,VWS V14.01,2013-08-06 06:34:00,
2013-08-06 01:39:00,65.1,63.0,29.77,WSW,239,6.0,7.0,93,0.00,,OVC,0.00,0.00,VWS V14.01,2013-08-06 06:39:00,
2013-08-06 01:44:00,65.0,62.9,29.77,West,279,4.0,8.0,93,0.00,,OVC,0.00,0.00,VWS V14.01,2013-08-06 06:44:00,
2013-08-06 01:49:00,65.0,62.9,29.77,WSW,239,0.0,6.0,93,0.00,,OVC,0.00,0.00,VWS V14.01,2013-08-06 06:49:00,
2013-08-06 01:54:00,65.0,62.9,29.76,WSW,242,4.0,4.0,93,0.00,,OVC,0.00,0.00,VWS V14.01,2013-08-06 06:54:00,
2013-08-06 01:59:00,65.0,62.9,29.76,SW,234,4.0,5.0,93,0.00,,OVC,0.00,0.00,VWS V14.01,2013-08-06 06:59:00,
2013-08-06 02:04:00,65.0,62.9,29.76,SW,234,0.0,3.0,93,0.00,,OVC,0.00,0.00,VWS V14.01,2013-08-06 07:04:00,
2013-08-06 02:10:00,65.0,62.9,29.76,SW,234,4.0,4.0,93,0.00,,OVC,0.00,0.00,VWS V14.01,2013-08-06 07:10:00,
2013-08-06 02:15:00,65.0,62.9,29.76,SW,234,1.0,3.0,93,0.00,,OVC,0.00,0.00,VWS V14.01,2013-08-06 07:15:00,
2013-08-06 02:20:00,64.9,62.8,29.76,SW,235,3.0,4.0,93,0.00,,OVC,0.00,0.00,VWS V14.01,2013-08-06 07:20:00,
2013-08-06 02:25:00,64.9,62.8,29.76,SW,232,1.0,4.0,93,0.00,,OVC,0.00,0.00,VWS V14.01,2013-08-06 07:25:00,
2013-08-06 02:30:00,64.9,62.8,29.76,SW,230,5.0,5.0,93,0.00,,OVC,0.00,0.00,VWS V14.01,2013-08-06 07:30:00,
2013-08-06 02:35:00,64.9,62.8,29.76,SW,235,3.0,5.0,93,0.00,,OVC,0.00,0.00,VWS V14.01,2013-08-06 07:35:00,
2013-08-06 02:40:00,64.9,62.8,29.76,SW,236,3.0,6.0,93,0.00,,OVC,0.00,0.00,VWS V14.01,2013-08-06 07:40:00,
2013-08-06 02:45:00,64.9,62.8,29.77,WSW,238,2.0,6.0,93,0.00,,OVC,0.00,0.00,VWS V14.01,2013-08-06 07:45:00,
2013-08-06 02:50:00,65.0,62.9,29.76,WSW,238,4.0,4.0,93,0.00,,OVC,0.00,0.00,VWS V14.01,2013-08-06 07:50:00,
2013-08-06 02:55:00,64.9,62.8,29.76,SW,235,3.0,5.0,93,0.00,,OVC,0.00,0.00,VWS V14.01,2013-08-06 07:55:00,
2013-08-06 03:00:00,64.9,62.8,29.76,SW,233,1.0,4.0,93,0.00,,OVC,0.00,0.00,VWS V14.01,2013-08-06 08:00:00,
2013-08-06 03:05:00,64.9,62.8,29.76,SW,221,1.0,4.0,93,0.00,,OVC,0.00,0.00,VWS V14.01,2013-08-06 08:05:00,
2013-08-06 03:10:00,64.8,62.7,29.75,SW,223,3.0,4.0,93,0.00,,OVC,0.00,0.00,VWS V14.01,2013-08-06 08:10:00,
2013-08-06 03:15:00,64.8,62.7,29.75,SW,219,3.0,4.0,93,0.00,,OVC,0.00,0.00,VWS V14.01,2013-08-06 08:15:00,
2013-08-06 03:20:00,64.8,62.7,29.74,SW,219,0.0,3.0,93,0.00,,OVC,0.00,0.00,VWS V14.01,2013-08-06 08:20:00,
2013-08-06 03:25:00,64.7,62.6,29.74,SW,219,0.0,0.0,93,0.00,,OVC,0.00,0.00,VWS V14.01,2013-08-06 08:25:00,
2013-08-06 03:30:00,64.7,62.6,29.74,SW,219,0.0,0.0,93,0.00,,OVC,0.00,0.00,VWS V14.01,2013-08-06 08:30:00,
2013-08-06 03:35:00,64.7,62.6,29.74,SW,219,0.0,0.0,93,0.00,,OVC,0.00,0.00,VWS V14.01,2013-08-06 08:35:00,
2013-08-06 03:41:00,64.6,62.5,29.74,SW,219,0.0,2.0,93,0.00,,OVC,0.00,0.00,VWS V14.01,2013-08-06 08:41:00,
2013-08-06 03:46:00,64.5,62.4,29.73,SW,215,0.0,3.0,93,0.00,,OVC,0.00,0.00,VWS V14.01,2013-08-06 08:46:00,
2013-08-06 03:51:00,64.5,62.4,29.73,SW,215,0.0,0.0,93,0.00,,OVC,0.00,0.00,VWS V14.01,2013-08-06 08:51:00,
2013-08-06 03:56:00,64.5,62.4,29.73,SW,216,0.0,2.0,93,0.00,,OVC,0.00,0.00,VWS V14.01,2013-08-06 08:56:00,
2013-08-06 04:01:00,64.5,62.4,29.73,SW,216,0.0,0.0,93,0.00,,OVC,0.00,0.00,VWS V14.01,2013-08-06 09:01:00,
2013-08-06 04:06:00,64.4,62.3,29.73,SW,216,0.0,0.0,93,0.00,,OVC,0.00,0.00,VWS V14.01,2013-08-06 09:06:00,
2013-08-06 04:11:00,64.3,62.2,29.73,SW,216,0.0,1.0,93,0.00,,OVC,0.00,0.00,VWS V14.01,2013-08-06 09:11:00,
2013-08-06 04:16:00,64.2,62.1,29.73,SW,215,0.0,3.0,93,0.00,,OVC,0.00,0.00,VWS V14.01,2013-08-06 09:16:00,
2013-08-06 04:21:00,64.1,62.0,29.74,SW,216,0.0,2.0,93,0.00,,OVC,0.00,0.00,VWS V14.01,2013-08-06 09:21:00,
2013-08-06 04:26:00,64.1,62.0,29.74,SW,215,0.0,3.0,93,0.00,,OVC,0.00,0.00,VWS V14.01,2013-08-06 09:26:00,
2013-08-06 04:31:00,64.2,62.1,29.74,SW,215,2.0,3.0,93,0.00,,OVC,0.00,0.00,VWS V14.01,2013-08-06 09:31:00,
2013-08-06 04:36:00,64.2,62.1,29.74,SW,216,0.0,4.0,93,0.00,,OVC,0.00,0.00,VWS V14.01,2013-08-06 09:36:00,
2013-08-06 04:41:00,64.3,62.2,29.75,SW,219,2.0,4.0,93,0.00,,OVC,0.00,0.00,VWS V14.01,2013-08-06 09:41:00,
2013-08-06 04:46:00,64.3,62.2,29.75,SW,227,2.0,4.0,93,0.00,,OVC,0.00,0.00,VWS V14.01,2013-08-06 09:46:00,
2013-08-06 04:51:00,64.4,62.3,29.74,SW,227,1.0,4.0,93,0.00,,OVC,0.00,0.00,VWS V14.01,2013-08-06 09:51:00,
2013-08-06 04:56:00,64.4,62.3,29.74,WSW,239,7.0,8.0,93,0.00,,OVC,0.00,0.00,VWS V14.01,2013-08-06 09:56:00,
2013-08-06 05:01:00,64.4,62.3,29.75,West,271,5.0,8.0,93,0.00,,OVC,0.00,0.00,VWS V14.01,2013-08-06 10:01:00,
2013-08-06 05:06:00,64.3,62.2,29.75,West,267,0.0,0.0,93,0.00,,OVC,0.00,0.00,VWS V14.01,2013-08-06 10:06:00,
2013-08-06 05:11:00,64.2,62.1,29.75,West,267,0.0,0.0,93,0.00,,OVC,0.00,0.00,VWS V14.01,2013-08-06 10:11:00,
2013-08-06 05:16:00,64.2,62.1,29.75,West,267,0.0,0.0,93,0.00,,OVC,0.00,0.00,VWS V14.01,2013-08-06 10:16:00,
2013-08-06 05:21:00,64.1,62.0,29.75,West,263,0.0,0.0,93,0.00,,OVC,0.00,0.00,VWS V14.01,2013-08-06 10:21:00,
2013-08-06 05:26:00,64.0,61.9,29.75,West,263,0.0,0.0,93,0.00,,OVC,0.00,0.00,VWS V14.01,2013-08-06 10:26:00,
2013-08-06 05:31:00,63.9,61.8,29.74,West,263,0.0,0.0,93,0.00,,OVC,0.00,0.00,VWS V14.01,2013-08-06 10:31:00,
2013-08-06 05:36:00,63.8,61.7,29.75,West,263,0.0,0.0,93,0.00,,OVC,0.00,0.00,VWS V14.01,2013-08-06 10:36:00,
2013-08-06 05:42:00,63.7,61.6,29.75,West,263,0.0,0.0,93,0.00,,OVC,0.00,0.00,VWS V14.01,2013-08-06 10:42:00,
2013-08-06 05:47:00,63.6,61.5,29.75,West,263,0.0,0.0,93,0.00,,OVC,0.00,0.00,VWS V14.01,2013-08-06 10:47:00,
2013-08-06 05:52:00,63.5,61.4,29.74,West,263,0.0,0.0,93,0.00,,OVC,0.00,0.00,VWS V14.01,2013-08-06 10:52:00,
2013-08-06 05:57:00,63.4,61.3,29.74,West,263,0.0,0.0,93,0.00,,OVC,0.00,0.00,VWS V14.01,2013-08-06 10:57:00,
2013-08-06 06:02:00,63.2,61.2,29.74,West,265,0.0,0.0,93,0.00,,OVC,0.00,0.00,VWS V14.01,2013-08-06 11:02:00,
2013-08-06 06:07:00,63.1,61.0,29.74,West,265,0.0,0.0,93,0.00,,OVC,0.00,0.00,VWS V14.01,2013-08-06 11:07:00,
2013-08-06 06:12:00,63.2,61.2,29.74,West,265,0.0,0.0,93,0.00,,OVC,0.00,5.00,VWS V14.01,2013-08-06 11:12:00,
2013-08-06 06:17:00,63.1,61.0,29.75,West,265,2.0,4.0,93,0.00,,OVC,0.00,7.00,VWS V14.01,2013-08-06 11:17:00,
2013-08-06 06:22:00,63.1,61.0,29.76,West,265,0.0,3.0,93,0.00,,OVC,0.00,9.00,VWS V14.01,2013-08-06 11:22:00,
2013-08-06 06:27:00,63.1,61.0,29.75,West,264,3.0,4.0,93,0.00,,OVC,0.00,14.00,VWS V14.01,2013-08-06 11:27:00,
2013-08-06 06:32:00,63.0,61.0,29.75,West,265,1.0,2.0,93,0.00,,OVC,0.00,18.00,VWS V14.01,2013-08-06 11:32:00,
2013-08-06 06:37:00,62.9,60.5,29.75,West,274,4.0,4.0,92,0.00,,OVC,0.00,26.00,VWS V14.01,2013-08-06 11:37:00,
2013-08-06 06:42:00,62.8,60.5,29.75,West,275,4.0,6.0,92,0.00,,OVC,0.00,39.00,VWS V14.01,2013-08-06 11:42:00,
2013-08-06 06:47:00,62.6,60.2,29.75,West,270,3.0,5.0,92,0.00,,OVC,0.00,35.00,VWS V14.01,2013-08-06 11:47:00,
2013-08-06 06:52:00,62.5,60.2,29.75,West,269,2.0,5.0,92,0.00,,OVC,0.00,25.00,VWS V14.01,2013-08-06 11:52:00,
2013-08-06 06:57:00,62.3,60.0,29.76,West,279,1.0,4.0,92,0.00,,OVC,0.00,28.00,VWS V14.01,2013-08-06 11:57:00,
2013-08-06 07:02:00,62.2,59.8,29.76,West,278,2.0,2.0,92,0.00,,OVC,0.00,26.00,VWS V14.01,2013-08-06 12:02:00,
2013-08-06 07:08:00,62.0,59.7,29.76,NW,305,2.0,3.0,92,0.00,,OVC,0.00,63.00,VWS V14.01,2013-08-06 12:08:00,
2013-08-06 07:13:00,62.0,59.7,29.76,NW,305,0.0,0.0,92,0.00,,OVC,0.00,74.00,VWS V14.01,2013-08-06 12:13:00,
2013-08-06 07:18:00,61.8,59.5,29.76,NW,305,0.0,0.0,92,0.00,,OVC,0.00,95.00,VWS V14.01,2013-08-06 12:18:00,
2013-08-06 07:23:00,61.6,59.3,29.76,WNW,302,2.0,3.0,92,0.00,,OVC,0.00,76.00,VWS V14.01,2013-08-06 12:23:00,
2013-08-06 07:28:00,61.6,59.3,29.77,WNW,301,0.0,2.0,92,0.00,,OVC,0.00,76.00,VWS V14.01,2013-08-06 12:28:00,
2013-08-06 07:33:00,61.5,59.2,29.77,WNW,300,2.0,4.0,92,0.00,,OVC,0.00,77.00,VWS V14.01,2013-08-06 12:33:00,
2013-08-06 07:38:00,61.4,59.1,29.77,West,281,2.0,5.0,92,0.00,,OVC,0.00,109.00,VWS V14.01,2013-08-06 12:38:00,
2013-08-06 07:43:00,61.3,59.0,29.76,West,280,0.0,0.0,92,0.00,,OVC,0.00,128.00,VWS V14.01,2013-08-06 12:43:00,
2013-08-06 07:48:00,61.3,59.0,29.76,West,280,0.0,0.0,92,0.00,,OVC,0.00,102.00,VWS V14.01,2013-08-06 12:48:00,
2013-08-06 07:53:00,61.4,59.1,29.77,West,280,0.0,1.0,92,0.00,,OVC,0.00,104.00,VWS V14.01,2013-08-06 12:53:00,
2013-08-06 07:58:00,61.4,59.1,29.77,West,280,3.0,4.0,92,0.00,,OVC,0.00,121.00,VWS V14.01,2013-08-06 12:58:00,
2013-08-06 08:03:00,61.3,59.0,29.77,West,280,0.0,0.0,92,0.00,,OVC,0.00,109.00,VWS V14.01,2013-08-06 13:03:00,
2013-08-06 08:08:00,61.4,59.1,29.77,West,279,3.0,5.0,92,0.00,,OVC,0.00,67.00,VWS V14.01,2013-08-06 13:08:00,
2013-08-06 08:13:00,61.5,59.2,29.77,West,268,4.0,5.0,92,0.00,,OVC,0.00,65.00,VWS V14.01,2013-08-06 13:13:00,
2013-08-06 08:18:00,61.4,59.1,29.77,West,263,8.0,9.0,92,0.00,,OVC,0.00,81.00,VWS V14.01,2013-08-06 13:18:00,
2013-08-06 08:23:00,61.4,59.1,29.77,West,270,0.0,2.0,92,0.00,,OVC,0.00,144.00,VWS V14.01,2013-08-06 13:23:00,
2013-08-06 08:28:00,61.4,59.1,29.77,West,271,2.0,5.0,92,0.00,,OVC,0.00,156.00,VWS V14.01,2013-08-06 13:28:00,
2013-08-06 08:33:00,61.5,59.2,29.77,West,269,2.0,5.0,92,0.00,,OVC,0.00,144.00,VWS V14.01,2013-08-06 13:33:00,
2013-08-06 08:38:00,61.7,59.4,29.77,West,267,0.0,1.0,92,0.00,,OVC,0.00,163.00,VWS V14.01,2013-08-06 13:38:00,
2013-08-06 08:43:00,61.8,59.5,29.77,West,267,2.0,6.0,92,0.00,,OVC,0.00,149.00,VWS V14.01,2013-08-06 13:43:00,
2013-08-06 08:48:00,61.9,59.5,29.76,West,267,0.0,3.0,92,0.00,,OVC,0.00,223.00,VWS V14.01,2013-08-06 13:48:00,
2013-08-06 08:53:00,62.0,59.7,29.76,West,266,1.0,4.0,92,0.00,,OVC,0.00,188.00,VWS V14.01,2013-08-06 13:53:00,
2013-08-06 08:58:00,62.1,59.5,29.76,West,266,2.0,4.0,91,0.00,,OVC,0.00,243.00,VWS V14.01,2013-08-06 13:58:00,
2013-08-06 09:03:00,62.2,59.8,29.76,West,265,4.0,4.0,92,0.00,,OVC,0.00,213.00,VWS V14.01,2013-08-06 14:03:00,
2013-08-06 09:08:00,62.3,59.6,29.76,West,269,0.0,5.0,91,0.00,,OVC,0.00,227.00,VWS V14.01,2013-08-06 14:08:00,
2013-08-06 09:14:00,62.4,59.7,29.76,West,268,0.0,0.0,91,0.00,,OVC,0.00,308.00,VWS V14.01,2013-08-06 14:14:00,
2013-08-06 09:19:00,62.7,60.0,29.76,West,268,0.0,2.0,91,0.00,,OVC,0.00,264.00,VWS V14.01,2013-08-06 14:19:00,
2013-08-06 09:24:00,62.9,59.9,29.76,West,267,0.0,4.0,90,0.00,,OVC,0.00,315.00,VWS V14.01,2013-08-06 14:24:00,
2013-08-06 09:29:00,63.1,59.8,29.76,West,267,0.0,1.0,89,0.00,,OVC,0.00,267.00,VWS V14.01,2013-08-06 14:29:00,
2013-08-06 09:34:00,63.3,59.7,29.76,West,267,0.0,2.0,88,0.00,,OVC,0.00,339.00,VWS V14.01,2013-08-06 14:34:00,
2013-08-06 09:39:00,63.6,60.0,29.76,West,259,2.0,4.0,88,0.00,,OVC,0.00,292.00,VWS V14.01,2013-08-06 14:39:00,
2013-08-06 09:44:00,63.9,60.3,29.76,West,259,0.0,0.0,88,0.00,,OVC,0.00,355.00,VWS V14.01,2013-08-06 14:44:00,
2013-08-06 09:49:00,64.2,60.3,29.76,West,259,0.0,3.0,87,0.00,,OVC,0.00,295.00,VWS V14.01,2013-08-06 14:49:00,
2013-08-06 09:54:00,64.5,60.5,29.77,WSW,253,0.0,3.0,87,0.00,,OVC,0.00,366.00,VWS V14.01,2013-08-06 14:54:00,
2013-08-06 09:59:00,64.7,60.4,29.77,WSW,252,0.0,0.0,86,0.01,,OVC,0.01,248.00,VWS V14.01,2013-08-06 14:59:00,
2013-08-06 10:04:00,65.0,60.4,29.77,SW,236,2.0,4.0,85,0.01,,OVC,0.01,348.00,VWS V14.01,2013-08-06 15:04:00,
2013-08-06 10:09:00,65.3,60.3,29.77,WSW,237,1.0,5.0,84,0.01,,OVC,0.01,443.00,VWS V14.01,2013-08-06 15:09:00,
2013-08-06 10:14:00,65.5,59.9,29.77,SW,236,8.0,8.0,82,0.01,,OVC,0.01,455.00,VWS V14.01,2013-08-06 15:14:00,
2013-08-06 10:19:00,65.7,60.1,29.77,West,262,0.0,6.0,82,0.01,,OVC,0.01,557.00,VWS V14.01,2013-08-06 15:19:00,
2013-08-06 10:24:00,65.9,60.3,29.77,WSW,256,2.0,3.0,82,0.01,,OVC,0.01,427.00,VWS V14.01,2013-08-06 15:24:00,
2013-08-06 10:29:00,66.1,59.8,29.77,WSW,246,0.0,6.0,80,0.01,,OVC,0.01,403.00,VWS V14.01,2013-08-06 15:29:00,
2013-08-06 10:35:00,66.4,59.7,29.77,WSW,251,2.0,6.0,79,0.01,,OVC,0.01,352.00,VWS V14.01,2013-08-06 15:35:00,
2013-08-06 10:40:00,66.5,60.2,29.77,West,266,5.0,7.0,80,0.01,,OVC,0.01,309.00,VWS V14.01,2013-08-06 15:40:00,
2013-08-06 10:45:00,66.5,60.5,29.77,WSW,250,3.0,6.0,81,0.01,,OVC,0.01,350.00,VWS V14.01,2013-08-06 15:45:00,
2013-08-06 10:50:00,66.5,60.2,29.77,WSW,241,5.0,8.0,80,0.01,,OVC,0.01,378.00,VWS V14.01,2013-08-06 15:50:00,
2013-08-06 10:55:00,66.6,60.2,29.77,WSW,244,3.0,7.0,80,0.01,,OVC,0.01,308.00,VWS V14.01,2013-08-06 15:55:00,
2013-08-06 11:00:00,66.7,60.3,29.77,WSW,245,3.0,7.0,80,0.01,,OVC,0.01,631.00,VWS V14.01,2013-08-06 16:00:00,
2013-08-06 11:05:00,67.0,60.3,29.77,WSW,243,6.0,8.0,79,0.00,,OVC,0.01,844.00,VWS V14.01,2013-08-06 16:05:00,
2013-08-06 11:10:00,67.1,60.0,29.77,WSW,240,8.0,9.0,78,0.00,,OVC,0.01,559.00,VWS V14.01,2013-08-06 16:10:00,
2013-08-06 11:15:00,67.1,59.7,29.77,WNW,284,6.0,9.0,77,0.00,,OVC,0.01,359.00,VWS V14.01,2013-08-06 16:15:00,
2013-08-06 11:20:00,67.1,60.0,29.76,WSW,241,4.0,7.0,78,0.00,,OVC,0.01,267.00,VWS V14.01,2013-08-06 16:20:00,
2013-08-06 11:25:00,67.2,60.1,29.76,West,267,6.0,9.0,78,0.00,,OVC,0.01,367.00,VWS V14.01,2013-08-06 16:25:00,
2013-08-06 11:30:00,67.2,59.8,29.76,WSW,246,2.0,5.0,77,0.00,,OVC,0.01,329.00,VWS V14.01,2013-08-06 16:30:00,
2013-08-06 11:35:00,67.3,59.8,29.76,WSW,240,8.0,8.0,77,0.00,,OVC,0.01,464.00,VWS V14.01,2013-08-06 16:35:00,
2013-08-06 11:40:00,67.3,59.1,29.76,West,265,0.0,8.0,75,0.00,,OVC,0.01,285.00,VWS V14.01,2013-08-06 16:40:00,
2013-08-06 11:45:00,67.5,59.7,29.76,WSW,243,5.0,7.0,76,0.00,,OVC,0.01,527.00,VWS V14.01,2013-08-06 16:45:00,
2013-08-06 11:50:00,67.7,59.5,29.76,WSW,242,5.0,8.0,75,0.00,,OVC,0.01,265.00,VWS V14.01,2013-08-06 16:50:00,
2013-08-06 11:55:00,67.8,59.2,29.77,WSW,254,4.0,8.0,74,0.00,,OVC,0.01,225.00,VWS V14.01,2013-08-06 16:55:00,
2013-08-06 12:00:00,67.8,59.2,29.77,WSW,248,3.0,9.0,74,0.00,,OVC,0.01,216.00,VWS V14.01,2013-08-06 17:00:00,
2013-08-06 12:05:00,67.9,59.3,29.77,WSW,250,4.0,9.0,74,0.00,,OVC,0.01,248.00,VWS V14.01,2013-08-06 17:05:00,
2013-08-06 12:10:00,68.0,59.8,29.78,SW,232,8.0,12.0,75,0.00,,OVC,0.01,285.00,VWS V14.01,2013-08-06 17:10:00,
2013-08-06 12:15:00,68.0,60.2,29.77,WSW,244,9.0,13.0,76,0.00,,OVC,0.01,323.00,VWS V14.01,2013-08-06 17:15:00,
2013-08-06 12:20:00,68.1,59.9,29.77,WSW,252,5.0,9.0,75,0.00,,OVC,0.01,288.00,VWS V14.01,2013-08-06 17:20:00,
2013-08-06 12:26:00,68.4,58.6,29.77,WSW,240,6.0,8.0,71,0.00,,OVC,0.01,1011.00,VWS V14.01,2013-08-06 17:26:00,
2013-08-06 12:27:00,68.5,59.1,29.77,WSW,249,5.0,7.0,72,0.00,,OVC,0.01,1011.00,VWS V14.01,2013-08-06 17:27:00,
2013-08-06 12:32:00,69.0,59.2,29.77,WSW,251,6.0,7.0,71,0.00,,OVC,0.01,963.00,VWS V14.01,2013-08-06 17:32:00,
2013-08-06 12:37:00,69.1,58.5,29.77,West,275,5.0,9.0,69,0.00,,OVC,0.01,408.00,VWS V14.01,2013-08-06 17:37:00,
2013-08-06 12:42:00,69.1,58.9,29.77,WSW,258,2.0,4.0,70,0.00,,OVC,0.01,436.00,VWS V14.01,2013-08-06 17:42:00,
2013-08-06 12:47:00,69.1,59.3,29.78,West,262,5.0,6.0,71,0.00,,OVC,0.01,422.00,VWS V14.01,2013-08-06 17:47:00,
2013-08-06 12:52:00,69.2,59.0,29.77,West,264,3.0,3.0,70,0.00,,OVC,0.01,744.00,VWS V14.01,2013-08-06 17:52:00,
2013-08-06 12:57:00,69.4,58.0,29.77,West,262,5.0,8.0,67,0.00,,OVC,0.01,766.00,VWS V14.01,2013-08-06 17:57:00,
2013-08-06 13:02:00,69.5,58.1,29.76,West,279,6.0,8.0,67,0.00,,OVC,0.01,403.00,VWS V14.01,2013-08-06 18:02:00,
2013-08-06 13:07:00,69.5,58.9,29.77,West,273,5.0,9.0,69,0.00,,OVC,0.01,378.00,VWS V14.01,2013-08-06 18:07:00,
2013-08-06 13:12:00,69.5,59.7,29.77,WSW,246,6.0,8.0,71,0.00,,OVC,0.01,323.00,VWS V14.01,2013-08-06 18:12:00,
2013-08-06 13:17:00,69.4,59.6,29.77,WSW,256,6.0,9.0,71,0.00,,OVC,0.01,230.00,VWS V14.01,2013-08-06 18:17:00,
2013-08-06 13:22:00,69.2,59.4,29.77,WSW,240,6.0,8.0,71,0.00,,OVC,0.01,181.00,VWS V14.01,2013-08-06 18:22:00,
2013-08-06 13:27:00,69.0,59.2,29.76,WSW,245,4.0,6.0,71,0.00,,OVC,0.01,202.00,VWS V14.01,2013-08-06 18:27:00,
2013-08-06 13:32:00,68.8,59.0,29.76,WSW,239,6.0,7.0,71,0.00,,OVC,0.01,267.00,VWS V14.01,2013-08-06 18:32:00,
2013-08-06 13:37:00,68.8,59.4,29.75,WSW,242,7.0,7.0,72,0.00,,OVC,0.01,341.00,VWS V14.01,2013-08-06 18:37:00,
2013-08-06 13:42:00,68.9,59.1,29.75,SW,234,5.0,5.0,71,0.00,,OVC,0.01,671.00,VWS V14.01,2013-08-06 18:42:00,
2013-08-06 13:47:00,69.2,59.4,29.75,WSW,250,2.0,6.0,71,0.00,,OVC,0.01,606.00,VWS V14.01,2013-08-06 18:47:00,
2013-08-06 13:52:00,69.5,59.3,29.74,West,262,1.0,9.0,70,0.00,,OVC,0.01,418.00,VWS V14.01,2013-08-06 18:52:00,
2013-08-06 13:57:00,69.6,59.8,29.74,West,278,7.0,11.0,71,0.00,,OVC,0.01,385.00,VWS V14.01,2013-08-06 18:57:00,
2013-08-06 14:02:00,69.5,59.7,29.74,West,276,5.0,7.0,71,0.00,,OVC,0.01,432.00,VWS V14.01,2013-08-06 19:02:00,
2013-08-06 14:08:00,69.7,60.3,29.75,WSW,250,6.0,8.0,72,0.00,,OVC,0.01,496.00,VWS V14.01,2013-08-06 19:08:00,
2013-08-06 14:13:00,69.9,60.1,29.75,West,275,9.0,11.0,71,0.00,,OVC,0.01,870.00,VWS V14.01,2013-08-06 19:13:00,
2013-08-06 14:18:00,70.0,60.2,29.75,SW,227,5.0,9.0,71,0.00,,OVC,0.01,417.00,VWS V14.01,2013-08-06 19:18:00,
2013-08-06 14:23:00,70.1,59.9,29.74,SW,232,3.0,6.0,70,0.00,,OVC,0.01,615.00,VWS V14.01,2013-08-06 19:23:00,
2013-08-06 14:28:00,70.3,59.7,29.75,West,278,5.0,6.0,69,0.00,,OVC,0.01,1014.00,VWS V14.01,2013-08-06 19:28:00,
2013-08-06 14:33:00,70.5,60.3,29.74,WSW,247,4.0,9.0,70,0.00,,OVC,0.01,380.00,VWS V14.01,2013-08-06 19:33:00,
2013-08-06 14:38:00,70.7,60.5,29.74,WSW,240,6.0,10.0,70,0.00,,OVC,0.01,380.00,VWS V14.01,2013-08-06 19:38:00,
2013-08-06 14:44:00,71.0,60.3,29.73,WSW,244,8.0,8.0,69,0.00,,OVC,0.01,942.00,VWS V14.01,2013-08-06 19:44:00,
2013-08-06 14:49:00,71.3,60.6,29.73,SW,219,3.0,8.0,69,0.00,,OVC,0.01,557.00,VWS V14.01,2013-08-06 19:49:00,
2013-08-06 14:54:00,71.5,60.0,29.73,WSW,247,8.0,9.0,67,0.00,,OVC,0.01,823.00,VWS V14.01,2013-08-06 19:54:00,
2013-08-06 14:59:00,71.6,60.1,29.73,WSW,242,5.0,9.0,67,0.00,,OVC,0.01,480.00,VWS V14.01,2013-08-06 19:59:00,
2013-08-06 15:04:00,71.3,59.4,29.73,WSW,247,8.0,13.0,66,0.00,,OVC,0.01,253.00,VWS V14.01,2013-08-06 20:04:00,
2013-08-06 15:09:00,71.1,60.0,29.73,WSW,237,8.0,8.0,68,0.00,,OVC,0.01,480.00,VWS V14.01,2013-08-06 20:09:00,
2013-08-06 15:14:00,71.0,60.3,29.73,SW,235,7.0,8.0,69,0.00,,OVC,0.01,406.00,VWS V14.01,2013-08-06 20:14:00,
2013-08-06 15:19:00,71.0,60.3,29.73,SW,232,0.0,5.0,69,0.00,,OVC,0.01,457.00,VWS V14.01,2013-08-06 20:19:00,
2013-08-06 15:24:00,71.2,61.3,29.73,West,265,2.0,6.0,71,0.00,,OVC,0.01,362.00,VWS V14.01,2013-08-06 20:24:00,
2013-08-06 15:29:00,71.4,61.1,29.73,West,260,9.0,9.0,70,0.00,,OVC,0.01,874.00,VWS V14.01,2013-08-06 20:29:00,
2013-08-06 15:33:00,71.5,60.4,29.73,SW,216,0.0,6.0,68,0.00,,OVC,0.01,840.00,VWS V14.01,2013-08-06 20:33:00,
2013-08-06 15:38:00,71.7,59.3,29.73,West,279,4.0,9.0,65,0.00,,OVC,0.01,872.00,VWS V14.01,2013-08-06 20:38:00,
2013-08-06 15:43:00,71.8,59.0,29.73,West,275,7.0,10.0,64,0.00,,OVC,0.01,951.00,VWS V14.01,2013-08-06 20:43:00,
2013-08-06 15:48:00,72.0,60.0,29.73,WSW,242,6.0,10.0,66,0.00,,OVC,0.01,439.00,VWS V14.01,2013-08-06 20:48:00,
2013-08-06 15:53:00,72.1,60.5,29.73,WSW,250,4.0,9.0,67,0.00,,OVC,0.01,967.00,VWS V14.01,2013-08-06 20:53:00,
2013-08-06 15:58:00,72.3,61.2,29.73,WSW,242,5.0,9.0,68,0.00,,OVC,0.01,768.00,VWS V14.01,2013-08-06 20:58:00,
2013-08-06 16:03:00,72.5,60.5,29.73,WNW,282,9.0,9.0,66,0.00,,OVC,0.01,728.00,VWS V14.01,2013-08-06 21:03:00,
2013-08-06 16:08:00,72.5,60.5,29.73,WNW,284,4.0,7.0,66,0.00,,OVC,0.01,719.00,VWS V14.01,2013-08-06 21:08:00,
2013-08-06 16:13:00,72.7,60.7,29.73,WNW,287,8.0,10.0,66,0.00,,OVC,0.01,708.00,VWS V14.01,2013-08-06 21:13:00,
2013-08-06 16:18:00,72.8,60.4,29.73,WSW,248,8.0,9.0,65,0.00,,OVC,0.01,714.00,VWS V14.01,2013-08-06 21:18:00,
2013-08-06 16:23:00,73.0,60.5,29.73,SW,234,15.0,15.0,65,0.00,,OVC,0.01,682.00,VWS V14.01,2013-08-06 21:23:00,
2013-08-06 16:28:00,73.0,60.5,29.73,SW,225,5.0,8.0,65,0.00,,OVC,0.01,664.00,VWS V14.01,2013-08-06 21:28:00,
2013-08-06 16:33:00,73.1,60.7,29.73,WSW,247,7.0,9.0,65,0.00,,OVC,0.01,652.00,VWS V14.01,2013-08-06 21:33:00,
2013-08-06 16:38:00,73.1,59.8,29.72,West,277,8.0,10.0,63,0.00,,OVC,0.01,640.00,VWS V14.01,2013-08-06 21:38:00,
2013-08-06 16:43:00,73.1,58.9,29.72,West,281,5.0,10.0,61,0.00,,OVC,0.01,638.00,VWS V14.01,2013-08-06 21:43:00,
2013-08-06 16:49:00,73.1,58.4,29.72,West,269,7.0,9.0,60,0.00,,OVC,0.01,615.00,VWS V14.01,2013-08-06 21:49:00,
2013-08-06 16:54:00,73.2,59.0,29.72,WSW,241,7.0,7.0,61,0.00,,OVC,0.01,638.00,VWS V14.01,2013-08-06 21:54:00,
2013-08-06 16:59:00,73.4,59.6,29.72,WSW,249,3.0,7.0,62,0.00,,OVC,0.01,647.00,VWS V14.01,2013-08-06 21:59:00,
2013-08-06 17:04:00,73.4,59.6,29.71,West,267,7.0,8.0,62,0.00,,OVC,0.01,98.00,VWS V14.01,2013-08-06 22:04:00,
2013-08-06 17:09:00,73.0,59.2,29.71,WSW,242,3.0,4.0,62,0.00,,OVC,0.01,120.00,VWS V14.01,2013-08-06 22:09:00,
2013-08-06 17:14:00,72.8,59.0,29.71,SW,215,0.0,2.0,62,0.00,,OVC,0.01,100.00,VWS V14.01,2013-08-06 22:14:00,
2013-08-06 17:19:00,72.5,59.6,29.72,WSW,248,1.0,4.0,64,0.00,,OVC,0.01,63.00,VWS V14.01,2013-08-06 22:19:00,
2013-08-06 17:24:00,72.3,60.3,29.71,WSW,249,0.0,0.0,66,0.00,,OVC,0.01,54.00,VWS V14.01,2013-08-06 22:24:00,
2013-08-06 17:29:00,72.1,61.4,29.72,WSW,250,3.0,4.0,69,0.00,,OVC,0.01,72.00,VWS V14.01,2013-08-06 22:29:00,
2013-08-06 17:34:00,71.7,61.8,29.72,SW,235,0.0,4.0,71,0.00,,OVC,0.01,360.00,VWS V14.01,2013-08-06 22:34:00,
2013-08-06 17:39:00,71.4,62.3,29.72,WSW,241,2.0,4.0,73,0.02,,OVC,0.03,183.00,VWS V14.01,2013-08-06 22:39:00,
2013-08-06 17:44:00,71.2,62.1,29.72,SW,228,0.0,5.0,73,0.02,,OVC,0.03,178.00,VWS V14.01,2013-08-06 22:44:00,
2013-08-06 17:49:00,70.7,62.4,29.73,WSW,244,4.0,7.0,75,0.02,,OVC,0.03,132.00,VWS V14.01,2013-08-06 22:49:00,
2013-08-06 17:54:00,70.2,62.3,29.72,WSW,242,0.0,0.0,76,0.02,,OVC,0.03,104.00,VWS V14.01,2013-08-06 22:54:00,
2013-08-06 17:59:00,69.9,62.7,29.72,WSW,242,0.0,0.0,78,0.02,,OVC,0.03,116.00,VWS V14.01,2013-08-06 22:59:00,
2013-08-06 18:04:00,69.7,63.3,29.72,WSW,242,0.0,0.0,80,0.02,,OVC,0.03,116.00,VWS V14.01,2013-08-06 23:04:00,
2013-08-06 18:10:00,69.4,63.7,29.72,WSW,242,0.0,0.0,82,0.02,,OVC,0.03,72.00,VWS V14.01,2013-08-06 23:10:00,
2013-08-06 18:15:00,69.1,63.7,29.72,WSW,242,0.0,0.0,83,0.02,,OVC,0.03,33.00,VWS V14.01,2013-08-06 23:15:00,
2013-08-06 18:20:00,68.8,63.4,29.72,WSW,242,0.0,0.0,83,0.02,,OVC,0.03,98.00,VWS V14.01,2013-08-06 23:20:00,
2013-08-06 18:25:00,68.5,63.5,29.72,WSW,242,0.0,0.0,84,0.02,,OVC,0.03,97.00,VWS V14.01,2013-08-06 23:25:00,
2013-08-06 18:30:00,68.3,63.6,29.71,WSW,242,0.0,0.0,85,0.02,,OVC,0.03,67.00,VWS V14.01,2013-08-06 23:30:00,
2013-08-06 18:35:00,68.0,63.3,29.71,WSW,242,0.0,0.0,85,0.02,,OVC,0.03,47.00,VWS V14.01,2013-08-06 23:35:00,
2013-08-06 18:40:00,67.9,63.6,29.71,WSW,242,0.0,0.0,86,0.00,,OVC,0.03,40.00,VWS V14.01,2013-08-06 23:40:00,
2013-08-06 18:45:00,67.7,63.4,29.70,WSW,242,0.0,0.0,86,0.00,,OVC,0.03,37.00,VWS V14.01,2013-08-06 23:45:00,
2013-08-06 18:50:00,67.5,63.5,29.71,WSW,242,0.0,0.0,87,0.00,,OVC,0.03,40.00,VWS V14.01,2013-08-06 23:50:00,
2013-08-06 18:55:00,67.3,63.3,29.71,WSW,242,0.0,0.0,87,0.00,,OVC,0.03,46.00,VWS V14.01,2013-08-06 23:55:00,
2013-08-06 19:00:00,67.2,63.5,29.71,WSW,242,0.0,0.0,88,0.00,,OVC,0.03,54.00,VWS V14.01,2013-08-07 00:00:00,
2013-08-06 19:05:00,67.0,63.3,29.71,WSW,242,0.0,0.0,88,0.00,,OVC,0.03,30.00,VWS V14.01,2013-08-07 00:05:00,
2013-08-06 19:10:00,66.8,63.1,29.71,WSW,243,0.0,0.0,88,0.00,,OVC,0.03,18.00,VWS V14.01,2013-08-07 00:10:00,
2013-08-06 19:15:00,66.7,63.0,29.71,WSW,242,0.0,0.0,88,0.00,,OVC,0.03,12.00,VWS V14.01,2013-08-07 00:15:00,
2013-08-06 19:20:00,66.5,63.2,29.70,WSW,242,0.0,0.0,89,0.00,,OVC,0.03,9.00,VWS V14.01,2013-08-07 00:20:00,
2013-08-06 19:25:00,66.3,63.0,29.71,WSW,242,0.0,0.0,89,0.00,,OVC,0.03,14.00,VWS V14.01,2013-08-07 00:25:00,
2013-08-06 19:30:00,66.3,63.0,29.71,WSW,242,0.0,0.0,89,0.00,,OVC,0.03,9.00,VWS V14.01,2013-08-07 00:30:00,
2013-08-06 19:35:00,66.2,62.9,29.71,WSW,242,0.0,0.0,89,0.00,,OVC,0.03,7.00,VWS V14.01,2013-08-07 00:35:00,
2013-08-06 19:40:00,66.2,63.2,29.70,WSW,242,0.0,0.0,90,0.00,,OVC,0.03,0.00,VWS V14.01,2013-08-07 00:40:00,
2013-08-06 19:45:00,66.1,63.1,29.71,WSW,242,0.0,0.0,90,0.00,,OVC,0.03,0.00,VWS V14.01,2013-08-07 00:45:00,
2013-08-06 19:50:00,66.1,63.1,29.70,WSW,242,0.0,0.0,90,0.00,,OVC,0.03,0.00,VWS V14.01,2013-08-07 00:50:00,
2013-08-06 19:55:00,65.9,62.9,29.71,WSW,242,0.0,0.0,90,0.00,,OVC,0.03,0.00,VWS V14.01,2013-08-07 00:55:00,
2013-08-06 20:00:00,65.7,62.4,29.71,WSW,242,0.0,3.0,89,0.00,,OVC,0.03,0.00,VWS V14.01,2013-08-07 01:00:00,
2013-08-06 20:06:00,65.5,62.2,29.70,WSW,242,0.0,0.0,89,0.00,,OVC,0.03,0.00,VWS V14.01,2013-08-07 01:06:00,
2013-08-06 20:11:00,65.3,62.0,29.69,WSW,242,0.0,0.0,89,0.01,,OVC,0.04,0.00,VWS V14.01,2013-08-07 01:11:00,
2013-08-06 20:16:00,65.2,61.9,29.69,WSW,242,0.0,0.0,89,0.01,,OVC,0.04,0.00,VWS V14.01,2013-08-07 01:16:00,
2013-08-06 20:21:00,65.0,61.7,29.69,WSW,242,0.0,0.0,89,0.01,,OVC,0.04,0.00,VWS V14.01,2013-08-07 01:21:00,
2013-08-06 20:26:00,64.9,61.6,29.69,WSW,242,0.0,0.0,89,0.01,,OVC,0.04,0.00,VWS V14.01,2013-08-07 01:26:00,
2013-08-06 20:31:00,64.8,61.5,29.70,WSW,242,0.0,0.0,89,0.02,,OVC,0.05,0.00,VWS V14.01,2013-08-07 01:31:00,
2013-08-06 20:36:00,64.7,61.7,29.69,WSW,242,0.0,0.0,90,0.02,,OVC,0.05,0.00,VWS V14.01,2013-08-07 01:36:00,
2013-08-06 20:41:00,64.6,61.6,29.68,WSW,242,0.0,0.0,90,0.03,,OVC,0.06,0.00,VWS V14.01,2013-08-07 01:41:00,
2013-08-06 20:46:00,64.5,61.5,29.68,WSW,241,0.0,0.0,90,0.04,,OVC,0.07,0.00,VWS V14.01,2013-08-07 01:46:00,
2013-08-06 20:51:00,64.4,61.4,29.69,WSW,241,0.0,0.0,90,0.04,,OVC,0.07,0.00,VWS V14.01,2013-08-07 01:51:00,
2013-08-06 20:56:00,64.3,61.6,29.70,WSW,241,0.0,0.0,91,0.05,,OVC,0.08,0.00,VWS V14.01,2013-08-07 01:56:00,
2013-08-06 21:01:00,64.3,61.6,29.70,WSW,241,0.0,0.0,91,0.06,,OVC,0.09,0.00,VWS V14.01,2013-08-07 02:01:00,
2013-08-06 21:06:00,64.2,61.5,29.70,SSE,164,0.0,0.0,91,0.06,,OVC,0.09,0.00,VWS V14.01,2013-08-07 02:06:00,
2013-08-06 21:11:00,64.0,61.3,29.69,SSE,164,0.0,0.0,91,0.06,,OVC,0.09,0.00,VWS V14.01,2013-08-07 02:11:00,
2013-08-06 21:16:00,63.9,61.2,29.69,SSE,163,0.0,0.0,91,0.05,,OVC,0.09,0.00,VWS V14.01,2013-08-07 02:16:00,
2013-08-06 21:21:00,63.8,61.1,29.69,SSE,161,0.0,0.0,91,0.05,,OVC,0.09,0.00,VWS V14.01,2013-08-07 02:21:00,
2013-08-06 21:26:00,63.8,61.1,29.69,SE,141,0.0,3.0,91,0.05,,OVC,0.09,0.00,VWS V14.01,2013-08-07 02:26:00,
2013-08-06 21:31:00,63.7,61.3,29.70,SE,141,0.0,0.0,92,0.05,,OVC,0.09,0.00,VWS V14.01,2013-08-07 02:31:00,
2013-08-06 21:36:00,63.6,61.2,29.70,SE,141,0.0,0.0,92,0.04,,OVC,0.09,0.00,VWS V14.01,2013-08-07 02:36:00,
2013-08-06 21:41:00,63.6,61.2,29.70,SE,141,0.0,0.0,92,0.03,,OVC,0.09,0.00,VWS V14.01,2013-08-07 02:41:00,
2013-08-06 21:46:00,63.5,61.1,29.69,SE,141,0.0,0.0,92,0.03,,OVC,0.10,0.00,VWS V14.01,2013-08-07 02:46:00,
2013-08-06 21:51:00,63.4,61.0,29.69,SE,141,0.0,0.0,92,0.03,,OVC,0.10,0.00,VWS V14.01,2013-08-07 02:51:00,
2013-08-06 21:56:00,63.4,61.0,29.69,SE,141,0.0,0.0,92,0.02,,OVC,0.10,0.00,VWS V14.01,2013-08-07 02:56:00,
2013-08-06 22:01:00,63.3,60.9,29.70,SE,141,0.0,0.0,92,0.01,,OVC,0.10,0.00,VWS V14.01,2013-08-07 03:01:00,
2013-08-06 22:06:00,63.2,60.8,29.69,SE,141,0.0,0.0,92,0.01,,OVC,0.10,0.00,VWS V14.01,2013-08-07 03:06:00,
2013-08-06 22:12:00,63.2,60.8,29.68,SE,141,0.0,0.0,92,0.01,,OVC,0.10,0.00,VWS V14.01,2013-08-07 03:12:00,
2013-08-06 22:17:00,63.1,60.7,29.68,SE,141,0.0,0.0,92,0.01,,OVC,0.10,0.00,VWS V14.01,2013-08-07 03:17:00,
2013-08-06 22:22:00,63.0,60.6,29.68,SE,141,0.0,0.0,92,0.01,,OVC,0.10,0.00,VWS V14.01,2013-08-07 03:22:00,
2013-08-06 22:23:00,63.0,60.6,29.68,SE,141,0.0,0.0,92,0.01,,OVC,0.10,0.00,VWS V14.01,2013-08-07 03:23:00,
2013-08-06 22:28:00,62.9,60.5,29.68,SE,141,0.0,0.0,92,0.01,,OVC,0.10,0.00,VWS V14.01,2013-08-07 03:28:00,
2013-08-06 22:33:00,62.9,60.5,29.67,SE,141,0.0,0.0,92,0.01,,OVC,0.10,0.00,VWS V14.01,2013-08-07 03:33:00,
2013-08-06 22:38:00,62.8,60.5,29.67,SE,141,0.0,0.0,92,0.01,,OVC,0.10,0.00,VWS V14.01,2013-08-07 03:38:00,
2013-08-06 22:43:00,62.7,60.3,29.67,SE,141,0.0,0.0,92,0.01,,OVC,0.10,0.00,VWS V14.01,2013-08-07 03:43:00,
2013-08-06 22:48:00,62.7,60.3,29.66,SE,141,0.0,0.0,92,0.00,,OVC,0.10,0.00,VWS V14.01,2013-08-07 03:48:00,
2013-08-06 22:53:00,62.6,60.2,29.66,SE,141,0.0,0.0,92,0.00,,OVC,0.10,0.00,VWS V14.01,2013-08-07 03:53:00,
2013-08-06 22:58:00,62.5,60.2,29.66,SE,141,0.0,0.0,92,0.00,,OVC,0.10,0.00,VWS V14.01,2013-08-07 03:58:00,
2013-08-06 23:01:00,62.4,60.0,29.66,SE,141,0.0,0.0,92,0.00,,OVC,0.10,0.00,VWS V14.01,2013-08-07 04:01:00,
2013-08-06 23:03:00,62.4,60.0,29.66,SE,141,0.0,0.0,92,0.00,,OVC,0.10,0.00,VWS V14.01,2013-08-07 04:03:00,
2013-08-06 23:06:00,62.4,60.0,29.67,SE,141,0.0,0.0,92,0.00,,OVC,0.10,0.00,VWS V14.01,2013-08-07 04:06:00,
2013-08-06 23:11:00,62.3,60.2,29.67,SE,141,0.0,0.0,93,0.00,,OVC,0.10,0.00,VWS V14.01,2013-08-07 04:11:00,
2013-08-06 23:16:00,62.3,60.2,29.67,SE,141,0.0,0.0,93,0.00,,OVC,0.10,0.00,VWS V14.01,2013-08-07 04:16:00,
2013-08-06 23:21:00,62.3,60.2,29.67,SE,141,0.0,0.0,93,0.00,,OVC,0.10,0.00,VWS V14.01,2013-08-07 04:21:00,
2013-08-06 23:26:00,62.4,60.3,29.68,SE,144,0.0,0.0,93,0.00,,OVC,0.10,0.00,VWS V14.01,2013-08-07 04:26:00,
2013-08-06 23:31:00,62.6,60.5,29.69,South,190,0.0,0.0,93,0.00,,OVC,0.10,0.00,VWS V14.01,2013-08-07 04:31:00,
2013-08-06 23:37:00,62.8,60.8,29.69,SW,220,0.0,0.0,93,0.00,,OVC,0.10,0.00,VWS V14.01,2013-08-07 04:37:00,
2013-08-06 23:42:00,62.9,60.8,29.69,West,265,3.0,3.0,93,0.00,,OVC,0.10,0.00,VWS V14.01,2013-08-07 04:42:00,
2013-08-06 23:47:00,62.8,60.8,29.69,West,265,3.0,4.0,93,0.00,,OVC,0.10,0.00,VWS V14.01,2013-08-07 04:47:00,
2013-08-06 23:52:00,62.7,60.7,29.69,West,267,3.0,3.0,93,0.00,,OVC,0.10,0.00,VWS V14.01,2013-08-07 04:52:00,
2013-08-06 23:57:00,62.7,60.7,29.70,West,275,5.0,5.0,93,0.00,,OVC,0.10,0.00,VWS V14.01,2013-08-07 04:57:00,